TimeEDT,TemperatureF,Dew PointF,Humidity,Sea Level PressureIn,VisibilityMPH,Wind Direction,Wind SpeedMPH,Gust SpeedMPH,PrecipitationIn,Events,Conditions,WindDirDegrees,DateUTC
12:53 AM,37.9,15.1,39,30.17,10.0,Calm,Calm,-,N/A,,Mostly Cloudy,0,2013-04-03 04:53:00
1:53 AM,37.0,14.0,39,30.19,10.0,Calm,Calm,-,N/A,,Mostly Cloudy,0,2013-04-03 05:53:00
2:53 AM,34.0,16.0,48,30.19,10.0,Calm,Calm,-,N/A,,Mostly Cloudy,0,2013-04-03 06:53:00
3:53 AM,30.0,19.0,64,30.19,10.0,Calm,Calm,-,N/A,,Mostly Cloudy,0,2013-04-03 07:53:00
4:53 AM,28.9,19.0,67,30.20,10.0,Calm,Calm,-,N/A,,Mostly Cloudy,0,2013-04-03 08:53:00
5:53 AM,28.0,19.9,72,30.20,10.0,Calm,Calm,-,N/A,,Partly Cloudy,0,2013-04-03 09:53:00
6:53 AM,28.0,19.0,69,30.22,10.0,Calm,Calm,-,N/A,,Partly Cloudy,0,2013-04-03 10:53:00
7:53 AM,28.9,21.9,75,30.27,10.0,Calm,Calm,-,N/A,,Partly Cloudy,0,2013-04-03 11:53:00
8:53 AM,35.1,25.0,67,30.28,10.0,Calm,Calm,-,N/A,,Partly Cloudy,0,2013-04-03 12:53:00
9:53 AM,41.0,19.9,43,30.28,10.0,Calm,Calm,-,N/A,,Partly Cloudy,0,2013-04-03 13:53:00
10:53 AM,44.1,17.1,34,30.28,10.0,NNE,4.6,-,N/A,,Partly Cloudy,20,2013-04-03 14:53:00
11:53 AM,48.0,18.0,30,30.25,10.0,NNE,10.4,-,N/A,,Clear,20,2013-04-03 15:53:00
12:53 PM,50.0,16.0,26,30.25,10.0,NNW,6.9,-,N/A,,Partly Cloudy,330,2013-04-03 16:53:00
1:53 PM,50.0,15.1,25,30.24,10.0,Variable,4.6,-,N/A,,Partly Cloudy,0,2013-04-03 17:53:00
2:53 PM,54.0,16.0,22,30.23,10.0,Calm,Calm,-,N/A,,Partly Cloudy,0,2013-04-03 18:53:00
3:53 PM,54.0,15.1,22,30.24,10.0,NNE,4.6,-,N/A,,Scattered Clouds,30,2013-04-03 19:53:00
4:53 PM,54.0,12.9,20,30.24,10.0,Calm,Calm,-,N/A,,Mostly Cloudy,0,2013-04-03 20:53:00
5:53 PM,53.1,16.0,23,30.24,10.0,NE,6.9,-,N/A,,Overcast,40,2013-04-03 21:53:00
6:53 PM,50.0,19.0,29,30.23,10.0,NNE,6.9,-,N/A,,Overcast,30,2013-04-03 22:53:00
7:53 PM,46.9,18.0,32,30.22,10.0,NNE,5.8,-,N/A,,Overcast,20,2013-04-03 23:53:00
8:53 PM,46.0,18.0,33,30.22,10.0,North,6.9,-,N/A,,Overcast,10,2013-04-04 00:53:00
9:53 PM,44.1,19.9,38,30.25,10.0,NNE,3.5,-,N/A,,Overcast,30,2013-04-04 01:53:00
10:53 PM,42.1,21.0,43,30.24,10.0,NE,4.6,-,N/A,,Overcast,40,2013-04-04 02:53:00
11:53 PM,42.1,18.0,38,30.23,10.0,NE,6.9,-,N/A,,Overcast,40,2013-04-04 03:53:00